Aeroporto :
LOGIN :

Iscrizione | Disclaimer

   EN    FR    IT 

 










Sommario :    VFR   VFR Marginale   IFR   IFR Intensivo   IFR Molto Intensivo
Visibilità : 
Base nubi : 
>= 8 km
>= 3000ft
5 / 8 km
1000 / 3000 ft
1500m / 5 km
500 / 1000 ft
800 / 1500m
200 / 500 ft
< 800m
< 200 ft
Simboli :   Temporali  Nebbia  Neve Forte  Precipitazioni Forti  Vento > 20 kt
SIGMETs :   Varie  Temporali  Ghiacco  Turbolenza  Onda orograficha  Ceneri Vulcaniche






- Altitudine del aeroporto : 120 ft
- Codice IATA : MME


EGNV - Durham Tees valley

ULTIMO METAR :
  • 292120Z 24018KT 9999 BKN023 09/06 Q1000

METARs OBSOLETI :
  • 292050Z 24021KT 9999 SCT021 SCT029 09/06 Q1000
  • 292020Z 23018KT 9999 BKN023 08/05 Q1000
  • 291950Z 23015KT 9999 SCT025 08/05 Q1000
  • 291920Z 23017KT 9999 FEW018 SCT026 09/05 Q1000
  • 291850Z 23018KT 9999 FEW025 08/05 Q1000

TAF TAF EGNV
Valido dal 29 a 18 ore il 29 a 22 ore UTC


291701Z 2918/2922 24015KT 9999 SCT025
PROB30
TEMPO 2918/2922 24017G28KT 8000 -RA BKN014
ATIS : +44 9012 018 111



MetMap, La meteo Aeronautica in un colpo d'occhio ! - Copyright ORBIFLY Dicembre 2007 - Disclaimer

ORBIFLY MET'MAP TEAM :

Programmazione e sviluppo : Alexandra Zaïnal
Concezione : Baudouin d'Aumeries
Aiuto per la programmazione : Marc-Olivier Méhu
Supporto tecnico e logistico : Manuel Goepfert
Aiuto per la traduzione : Arnaldo La Scala

Contatto : metmap@orbifly.com




FONTI E CREDITI :

   NOAA